Location: Newark
(36.0000°N, 138.0000°E)
Time: 23:30:22
(UTC+00:00)

ISS - Visible Passes

Search period start: 22 October 2019 00:00
Search period end: 01 November 2019 00:00
Orbit: 411 x 421 km, 51.6° (Epoch: 23 October)

Date Brightness Start Highest point End Pass type
(mag) Time Alt. Az. Time Alt. Az. Time Alt. Az.
22 Oct -1.9 20:15:52 10° SSW 20:18:55 33° SE 20:21:58 10° ENE visible
23 Oct -1.0 19:28:11 10° S 19:30:31 18° SE 19:32:51 10° E visible
24 Oct -3.8 20:15:05 10° SW 20:18:26 71° NW 20:21:47 10° NE visible
25 Oct -3.3 19:29:09 44° S 19:29:54 58° SE 19:33:12 10° NE visible
26 Oct -0.8 18:43:17 17° E 18:43:17 17° E 18:44:23 10° ENE visible
26 Oct -2.5 20:16:14 16° W 20:18:07 25° NNW 20:21:00 10° NNE visible
27 Oct -2.8 19:30:11 36° N 19:30:11 36° N 19:32:40 10° NE visible
28 Oct -0.5 18:43:58 11° NE 18:43:58 11° NE 18:44:10 10° NE visible
28 Oct -1.6 20:16:53 11° NW 20:18:00 13° NNW 20:19:38 10° N visible
29 Oct -1.4 19:30:32 15° N 19:30:32 15° N 19:31:35 10° NNE visible
